Location: Albany
(42.6526°N, 73.7562°W)
Time: 03:13:40
(UTC+00:00)

Okean O Rocket - Pass Details

Date: 19 November 2019
Orbit: 622 x 645 km, 98.2° (Epoch: 08 December)

Event Time Altitude Azimuth Distance (km) Brightness Sun altitude
Rises 22:13:32 0° 189° (S) 2,919 5.4 -8.4°
Reaches altitude 10° 22:15:55 10° 199° (SSW) 2,011 4.7 -8.8°
Maximum altitude 22:19:50 32° 263° (W) 1,092 3.7 -9.5°
Drops below altitude 10° 22:23:46 10° 327° (NNW) 2,013 4.4 -10.2°
Sets 22:26:10 0° 337° (NNW) 2,922 5.1 -10.6°
